Vorticity
11 8 4 5 8 8 7 7 8 9 12 13 11 10 8 7 6 6 5 5 4 5 5 5 5 4 2 2 6 12 12 7 4 4 5 6 5 4 4 3 2 4 5 4 2 1 2 5 5 4 5 5 4 4 4 4 7 8 7 6 6 6 7 5 5 5 3 2 3 4 3 3 5 6 6 6 5 5 5 5 5 6 6 6 6
9 7 6 7 8 6 4 6 8 10 12 14 14 12 9 7 6 6 5 5 4 5 6 6 5 5 4 4 8 12 11 6 3 3 5 6 5 4 4 4 3 4 5 4 1 1 2 2 4 4 4 4 5 4 2 3 6 8 6 5 5 6 6 5 4 3 3 2 2 3 4 4 5 6 6 5 5 5 5 5 6 6 7 7 7
7 7 9 10 9 6 5 5 8 12 13 13 15 14 13 11 9 8 7 6 6 5 5 6 6 6 5 6 9 12 10 6 3 4 5 5 5 4 4 5 5 4 5 2 0 2 3 3 5 4 2 5 11 9 4 3 5 5 5 6 7 7 6 6 6 4 3 3 4 4 4 4 6 6 5 5 5 5 5 6 7 7 8 9 9
7 7 10 12 9 6 5 6 8 11 11 11 11 12 12 13 12 12 11 10 9 9 8 7 6 7 7 8 12 13 10 6 3 3 4 4 5 4 4 5 5 6 5 0 -2 2 6 6 4 -1 1 13 23 21 11 5 3 2 4 7 9 9 7 6 6 5 3 2 3 6 6 5 6 5 5 5 4 5 6 6 6 7 8 9 9
8 7 9 11 9 6 4 5 9 10 10 10 9 9 11 13 15 16 15 16 15 14 12 10 9 11 11 11 12 12 10 6 3 4 4 4 5 5 4 6 6 6 7 0 -5 -1 5 7 4 2 8 15 15 13 9 5 2 2 4 7 10 10 7 6 6 4 3 2 1 4 5 6 6 4 5 6 6 6 6 6 7 7 7 7 7
7 6 10 12 10 7 4 6 10 9 8 9 10 12 14 15 17 17 19 22 24 24 23 20 17 16 15 13 11 10 9 6 3 4 4 3 4 4 4 5 6 8 8 2 -3 -1 5 6 5 6 12 11 6 7 9 8 5 4 4 5 10 12 7 6 7 5 4 4 2 2 3 4 5 5 5 7 7 7 7 7 8 7 7 6 6
8 9 13 15 11 7 6 9 10 6 6 7 9 11 14 16 15 13 15 20 23 25 25 25 25 24 22 15 10 10 9 6 4 5 5 4 4 5 4 4 5 8 7 2 1 2 5 8 10 9 8 6 7 8 8 11 14 11 6 5 8 11 9 6 6 6 5 5 4 3 2 3 5 6 7 8 8 9 9 9 9 8 8 7 5
6 8 13 16 15 12 10 10 8 5 6 8 8 8 8 10 9 9 11 13 14 16 18 20 23 27 25 16 9 10 9 6 4 4 5 5 4 5 4 2 4 6 4 3 4 2 2 6 6 5 5 4 5 6 7 13 18 14 9 7 9 11 10 6 5 5 6 5 4 4 3 2 4 6 7 7 8 10 11 10 9 9 8 6 6
5 10 13 14 17 18 13 8 7 5 5 6 7 5 3 3 3 3 3 4 7 11 14 16 17 20 22 16 9 9 10 7 5 5 6 6 6 5 3 2 3 4 4 4 2 -0 1 2 1 7 12 8 3 6 9 11 14 14 11 11 12 12 8 5 4 5 6 6 4 4 4 4 5 6 7 9 9 9 9 8 8 8 6 5 8
9 13 14 13 15 18 13 7 5 4 5 6 6 4 1 -1 -1 -1 -0 1 3 5 9 15 16 15 17 16 12 10 11 9 5 6 7 7 6 5 2 2 3 3 3 1 -1 1 2 -0 1 7 12 8 4 10 15 8 5 10 12 10 10 10 7 5 5 5 5 5 5 5 5 6 7 8 10 10 10 8 6 6 6 6 7 8 9
8 8 9 8 9 13 12 7 5 5 5 5 4 5 4 0 -2 0 1 -0 1 4 7 11 14 15 16 17 16 14 13 9 5 7 10 8 7 4 0 2 3 2 1 -2 -1 2 2 1 2 1 5 8 5 12 19 8 -2 6 15 11 7 6 5 5 6 5 4 4 5 5 6 7 8 10 11 9 7 7 6 5 6 7 8 9 10
7 6 6 5 6 11 12 9 9 8 6 4 2 2 4 3 1 0 -0 -0 2 4 7 8 11 15 17 17 17 17 16 10 5 7 10 8 6 3 -1 2 3 2 -1 -3 -1 1 1 3 3 -1 2 3 3 17 20 -2 -10 8 20 14 8 5 5 6 6 5 4 5 6 6 7 9 9 9 10 8 5 6 5 5 6 8 9 11 15
7 7 3 1 6 8 7 8 12 13 11 9 4 -1 0 3 3 1 2 4 3 4 9 10 8 9 13 16 16 16 16 12 7 8 9 9 7 3 0 2 2 1 -1 -3 -1 2 3 4 2 1 2 -4 2 21 14 -9 -2 19 20 12 11 9 7 8 6 4 5 5 5 7 9 10 10 8 7 6 5 5 6 6 7 9 11 16 18
6 5 2 2 6 6 4 5 7 10 10 9 8 6 4 6 9 10 10 10 9 9 10 10 9 7 10 13 13 13 16 14 10 7 7 9 8 4 2 2 0 0 0 -1 -1 1 3 3 1 2 1 -4 2 9 -0 -8 3 10 5 5 10 10 9 10 9 6 5 4 4 8 11 10 9 8 6 6 5 4 5 6 8 11 15 19 19
5 3 3 4 4 3 3 1 1 4 5 7 9 7 4 4 6 5 5 6 9 10 8 8 10 7 6 8 10 13 17 17 13 8 7 10 9 5 3 2 -0 1 2 1 -0 1 3 2 3 3 -1 -1 5 4 -1 -6 -9 -4 7 10 7 7 10 12 12 9 5 5 6 9 12 9 7 6 6 6 6 5 6 6 9 15 19 19 18
9 8 9 11 9 5 4 3 2 1 2 6 10 9 5 4 3 1 0 0 2 4 4 6 8 7 6 6 6 8 13 17 18 12 7 8 8 5 4 4 1 -1 1 1 -0 2 4 2 4 4 -1 -1 5 5 3 -2 -5 14 34 22 3 5 8 11 17 15 6 5 8 11 11 7 5 6 6 6 6 5 6 8 12 17 19 18 17
10 10 10 11 10 9 10 8 5 2 -2 -2 2 6 7 4 4 5 5 5 4 3 3 5 6 5 4 3 4 5 7 12 16 16 11 8 7 5 3 4 3 -1 -1 1 1 5 7 2 4 5 -1 -2 1 -1 -1 -3 -3 12 24 15 5 7 10 14 20 15 6 5 9 11 10 7 6 7 6 6 6 5 6 11 15 16 17 19 17
8 8 5 3 3 7 11 12 12 11 6 -0 -3 0 3 4 4 4 2 2 3 2 3 6 6 4 3 3 3 4 5 7 11 17 16 10 7 5 2 2 3 1 -2 -3 1 7 7 2 4 5 -0 -4 -3 -3 -0 -0 -4 -5 3 14 17 10 10 20 20 10 5 7 10 11 8 6 6 7 6 6 5 5 7 12 15 16 18 19 14
3 3 4 3 1 0 1 8 15 11 6 6 3 -2 -0 4 5 6 7 11 12 7 3 2 3 5 5 2 2 3 5 5 6 13 19 17 11 6 1 1 2 1 -2 -1 2 6 5 3 3 2 -2 -3 -4 0 4 1 -3 -5 -3 12 22 12 10 20 16 6 6 8 11 11 7 6 7 6 6 6 4 5 10 13 14 16 18 16 10
3 3 4 3 3 1 -0 8 14 6 0 5 3 -2 3 6 1 -1 3 12 20 19 12 7 6 8 6 3 3 3 2 2 2 7 14 17 16 11 4 3 4 1 -2 -1 2 4 2 2 2 -1 -1 -0 -3 2 5 -3 -3 -1 -4 6 18 12 11 17 11 3 7 10 11 10 6 6 8 6 5 6 5 7 12 14 15 16 16 13 8
3 3 3 3 6 8 5 6 10 7 4 2 -3 0 8 6 -0 -2 -0 4 11 15 15 13 11 11 11 9 7 4 0 -0 2 5 8 13 19 18 10 8 7 2 -3 -2 4 6 2 3 4 -1 -2 1 -1 2 3 -2 -0 2 -4 5 17 10 7 16 11 3 8 12 10 9 7 6 7 6 6 6 6 10 14 14 15 15 13 9 6
7 5 6 6 8 10 7 5 11 15 11 2 -1 5 7 1 -2 1 2 3 6 9 11 11 11 14 14 10 11 13 8 1 -1 0 2 4 11 16 16 16 12 5 -2 -1 5 6 1 2 4 -1 -2 2 1 -0 0 -1 3 4 -3 5 17 9 4 13 11 5 10 13 10 7 7 7 7 6 6 6 7 11 15 15 14 13 10 6 5
9 8 8 6 5 6 5 4 9 13 8 1 -1 2 2 -1 -1 1 3 5 8 9 8 5 7 11 6 1 8 14 14 13 13 7 0 -1 2 8 14 17 16 10 4 1 3 5 5 4 2 1 1 -1 -2 4 4 -4 -2 4 1 7 18 14 8 12 12 8 11 12 10 7 6 6 7 6 6 7 9 11 14 15 14 11 7 5 6
6 6 6 6 4 5 5 5 5 6 4 2 2 3 3 1 1 1 2 4 7 8 7 5 7 8 1 -3 3 8 7 11 17 18 15 10 4 0 3 11 15 14 10 5 0 -1 2 3 1 3 3 -1 8 20 8 -13 -7 7 6 7 15 14 11 14 12 10 12 12 9 7 6 6 7 6 6 7 9 12 15 15 12 9 5 5 7
2 3 5 6 5 4 4 4 3 3 2 2 5 7 6 4 3 3 3 6 9 9 6 4 4 6 6 1 2 7 7 3 5 10 16 17 13 6 2 2 3 5 9 13 9 2 -0 -0 -0 2 1 2 15 18 -3 -16 -0 12 10 12 15 11 13 17 12 9 14 13 8 6 6 7 7 6 7 8 9 12 14 13 10 7 5 6 7
5 5 4 3 2 3 4 4 5 6 6 9 11 10 8 6 5 5 5 8 11 8 4 3 4 8 11 6 1 4 7 6 4 1 1 10 16 12 7 6 6 4 5 7 9 8 7 4 4 6 6 6 8 3 -5 -0 7 6 11 20 12 3 13 19 11 10 14 12 8 7 6 7 7 6 7 9 10 12 12 12 9 5 4 7 7
4 2 1 -0 0 3 4 6 8 8 7 9 8 5 5 4 3 6 10 15 16 10 6 7 8 8 8 7 6 4 2 4 8 6 7 11 11 12 19 20 12 4 1 2 8 14 14 10 6 6 6 4 2 2 2 2 -4 -4 12 16 -6 -10 12 18 9 11 16 11 7 7 6 7 7 7 8 9 10 12 12 11 7 4 5 7 6
7 9 13 16 18 18 15 12 12 11 11 11 9 7 8 7 6 10 12 11 11 9 7 8 8 6 6 6 6 5 3 4 3 2 7 8 3 8 19 22 19 16 10 4 3 4 6 7 8 13 15 8 4 6 5 0 -2 8 26 25 5 3 18 17 8 12 15 9 7 7 6 7 8 8 9 9 10 12 12 9 6 4 6 7 6
18 20 21 21 22 22 18 14 12 11 11 11 12 14 13 10 11 12 8 2 3 5 7 6 3 1 2 2 2 3 5 6 5 5 9 10 5 4 6 12 22 27 25 29 29 18 11 13 15 19 23 16 8 8 9 7 2 0 14 25 20 15 17 12 9 13 13 8 8 7 6 8 9 10 10 10 10 12 11 8 5 5 6 7 6
14 15 13 12 9 6 4 4 4 4 5 6 8 10 10 10 11 12 9 6 4 3 4 4 4 6 5 3 4 4 1 1 4 5 4 3 3 6 5 4 5 4 10 31 37 19 14 27 31 26 27 28 24 19 20 20 4 -11 2 20 16 10 13 12 10 13 12 8 7 7 7 9 10 11 11 9 10 12 10 7 4 6 7 7 5
5 5 6 6 5 4 3 3 1 1 3 4 4 6 8 7 5 5 5 4 3 3 3 2 2 4 2 1 5 7 5 5 6 5 6 5 5 7 6 5 7 8 6 11 10 -1 -5 6 14 13 17 23 20 15 27 36 16 -5 6 20 13 9 14 11 8 12 11 7 7 8 7 9 10 11 10 9 10 12 10 6 5 6 8 6 7
3 3 3 2 2 4 3 3 3 4 3 3 3 5 7 7 7 8 8 7 7 7 6 5 6 7 7 7 8 7 6 7 5 4 6 6 6 12 13 6 2 -1 -3 4 15 11 -2 -9 -5 5 18 25 18 16 32 40 15 -4 6 16 11 12 13 7 8 13 9 6 9 8 7 9 10 10 10 8 9 11 9 5 6 7 7 7 8
3 3 3 3 2 3 2 3 4 3 2 3 3 3 4 6 7 7 8 9 10 11 12 13 13 10 8 8 8 9 12 12 11 11 11 8 10 14 12 6 2 -2 -4 -1 3 4 3 1 2 8 14 15 16 28 45 40 15 6 17 18 11 13 11 6 10 12 7 7 9 7 6 9 10 10 10 8 9 11 8 5 7 8 7 7 9
6 6 6 4 4 5 5 4 5 4 4 5 5 5 8 12 12 12 12 10 8 10 12 12 11 11 12 13 11 11 10 8 9 12 12 14 18 17 10 10 15 15 13 13 17 20 13 1 1 6 2 3 29 61 70 51 27 16 17 14 11 11 8 6 10 11 7 8 8 6 7 10 11 11 10 8 9 10 6 5 8 8 7 8 9
12 11 9 9 8 6 4 5 8 11 10 9 9 10 11 14 15 15 13 10 11 14 14 12 11 11 10 11 12 14 16 16 17 16 12 9 11 13 12 8 4 3 7 12 12 5 -8 -8 12 15 -2 13 56 61 27 10 15 13 9 12 13 9 6 8 11 10 7 7 8 7 8 10 11 11 9 9 10 9 6 6 8 8 7 8 8
6 4 7 7 3 0 4 9 12 14 13 14 14 10 6 9 13 13 12 14 15 13 9 8 8 9 13 17 18 16 15 14 11 10 11 13 14 13 11 6 3 12 24 23 14 12 15 20 15 -6 -9 35 63 20 -28 -16 11 9 4 13 12 5 6 10 10 9 8 7 7 7 9 11 12 11 9 9 10 8 6 7 8 7 8 8 6
4 4 5 1 -4 3 16 22 21 19 18 18 15 9 7 12 14 13 13 12 8 8 11 12 12 15 19 18 16 18 21 23 23 18 10 6 8 13 17 20 20 22 26 28 26 22 12 -6 -21 -14 22 56 40 0 1 29 24 2 5 15 8 3 9 10 8 9 8 6 7 8 10 12 13 10 9 10 10 8 7 7 7 8 8 7 5
1 1 -2 -5 2 19 29 28 23 19 17 16 14 11 12 14 13 11 11 9 9 14 15 10 14 28 36 36 39 43 37 29 32 35 29 21 18 13 5 3 11 21 27 23 4 -17 -24 -12 14 43 55 36 6 7 33 35 8 0 14 13 3 5 10 8 9 11 8 6 8 8 10 13 12 10 10 10 9 8 7 6 7 8 8 6 5
8 6 3 6 16 22 20 17 16 16 15 15 14 13 14 15 13 11 10 11 14 14 10 17 39 61 78 89 92 90 88 83 70 50 31 22 23 26 19 8 4 10 9 -6 -22 -16 13 41 54 50 36 22 21 28 24 6 -0 12 15 5 3 10 10 7 10 10 6 7 8 7 11 13 11 10 10 10 9 10 7 5 7 8 8 7 5
24 20 19 20 19 12 6 8 12 12 12 11 12 16 17 14 12 12 12 14 16 16 23 39 39 21 19 36 48 62 93 110 90 67 63 51 24 10 18 22 12 3 -1 -3 6 31 50 48 36 31 29 26 23 15 4 3 12 14 7 4 8 9 7 9 12 9 7 8 7 7 12 13 10 11 10 9 10 10 7 5 7 8 8 8 4
16 16 19 20 17 11 9 10 10 10 11 10 11 16 16 12 13 15 13 16 21 21 27 37 28 6 4 16 16 21 31 12 -21 2 72 101 60 13 6 22 32 36 41 46 49 49 41 30 26 28 22 11 4 4 9 14 14 8 5 8 8 7 9 11 10 8 8 6 5 9 12 11 10 11 9 9 11 11 6 4 6 7 8 8 5
8 9 13 17 17 14 13 12 11 12 11 9 11 16 15 13 15 15 15 22 28 21 17 26 31 32 37 32 17 15 18 1 -17 5 48 67 56 40 34 39 42 39 35 33 30 24 19 16 13 7 0 -0 7 13 15 13 10 6 7 7 7 9 11 9 8 10 8 4 5 10 11 10 11 11 9 11 13 10 6 5 6 7 9 8 6
13 13 14 16 15 13 12 11 11 12 11 11 14 17 15 14 16 15 18 23 21 10 10 19 21 20 24 27 22 18 14 12 21 32 27 18 22 27 23 18 17 13 10 11 11 9 7 6 3 2 6 12 17 16 13 10 7 5 6 8 10 10 9 9 11 10 5 4 7 9 10 11 11 10 11 13 12 9 6 5 5 7 8 7 7
21 19 18 16 13 12 11 10 9 9 11 13 16 16 15 14 14 13 13 12 7 -1 -2 1 3 5 12 18 22 21 14 5 6 10 9 10 14 13 10 11 13 12 12 11 7 5 7 9 10 13 18 18 16 12 8 5 4 6 8 9 9 9 10 11 10 7 6 7 7 8 11 13 10 10 13 13 10 9 8 4 3 7 8 7 7
20 18 16 13 11 11 10 10 9 11 12 14 16 16 15 13 13 15 15 12 11 11 8 4 8 16 16 10 5 7 10 11 7 2 4 8 9 8 11 13 10 8 9 8 7 10 14 15 15 17 17 13 9 6 4 5 7 9 9 8 9 9 10 10 9 8 8 6 5 8 12 11 9 12 14 12 10 10 8 4 3 5 6 7 8
10 10 11 11 13 15 14 14 14 15 16 18 16 15 14 13 11 13 15 13 10 10 8 4 6 11 13 14 14 13 14 15 11 10 14 16 10 6 6 4 4 8 10 9 11 13 13 12 13 12 9 7 6 4 5 7 8 9 9 8 8 9 10 10 11 10 8 6 7 9 10 10 10 12 13 12 11 11 8 6 4 4 5 8 8
10 10 13 15 17 18 18 18 18 18 18 17 14 12 14 14 12 12 13 12 10 9 6 5 8 14 18 18 15 17 22 23 19 21 28 26 17 13 10 4 4 10 12 10 12 13 10 10 10 7 5 7 7 5 7 9 9 10 9 8 9 12 12 11 10 9 8 8 8 7 8 10 11 12 13 13 12 10 8 7 5 3 4 7 8
17 18 18 18 18 19 19 20 20 19 17 14 11 10 11 12 13 14 13 10 12 17 18 15 13 12 9 6 5 8 9 5 6 18 26 18 6 4 2 -5 -2 9 13 12 13 12 9 8 8 6 6 8 6 6 9 10 8 8 9 10 12 14 12 10 11 11 8 8 7 7 9 10 10 11 13 13 12 11 10 8 6 4 3 5 7
18 18 17 15 15 15 16 17 18 18 18 14 12 12 12 10 9 10 8 7 12 14 12 13 21 24 15 7 7 9 5 -1 1 9 9 -1 -7 -4 -2 -2 4 11 12 10 11 12 9 8 7 6 6 7 7 8 10 9 8 11 12 12 12 12 11 11 13 10 7 8 8 6 7 9 11 12 13 12 12 13 10 7 7 6 3 3 6
16 15 15 14 11 10 12 14 14 15 16 15 13 13 13 11 9 10 9 9 13 11 5 12 33 42 27 11 7 10 12 13 12 7 1 -3 -3 -1 1 4 9 12 11 12 14 12 8 7 7 6 6 8 8 9 9 10 11 13 11 10 11 11 11 12 12 9 8 9 8 7 8 10 10 11 12 12 13 13 11 8 8 6 3 3 5
13 12 12 12 12 11 12 14 14 13 14 13 12 13 14 12 12 13 12 11 16 19 17 19 25 17 -0 -6 5 15 16 14 10 5 2 2 2 3 5 7 9 13 16 16 13 10 7 6 6 6 7 8 10 11 13 14 13 11 11 11 12 11 11 12 12 10 9 8 8 8 9 8 9 10 11 12 12 13 12 11 9 7 5 4 3
Height
5898 5899 5900 5901 5902 5903 5904 5904 5905 5906 5906 5907 5907 5908 5908 5909 5910 5910 5910 5911 5912 5913 5914 5915 5915 5916 5917 5918 5918 5918 5918 5918 5918 5918 5918 5919 5919 5919 5919 5918 5918 5918 5918 5917 5917 5916 5915 5913 5912 5910 5910 5909 5908 5908 5907 5907 5906 5905 5903 5902 5901 5900 5899 5897 5896 5894 5892 5891 5889 5888 5887 5886 5885 5884 5882 5880 5878 5876 5875 5873 5871 5869 5867 5865 5863
5896 5897 5898 5899 5900 5900 5901 5902 5902 5903 5904 5904 5905 5905 5905 5906 5906 5907 5908 5908 5909 5910 5911 5912 5913 5914 5915 5915 5916 5916 5915 5915 5916 5916 5916 5917 5917 5917 5917 5917 5917 5917 5917 5917 5916 5915 5914 5912 5911 5910 5909 5908 5907 5906 5906 5905 5903 5902 5901 5900 5898 5897 5897 5895 5894 5892 5890 5889 5888 5886 5885 5883 5882 5881 5879 5877 5875 5874 5872 5870 5868 5866 5863 5861 5859
5894 5894 5895 5896 5897 5898 5898 5899 5900 5901 5902 5902 5902 5903 5903 5903 5903 5904 5905 5905 5906 5908 5909 5910 5910 5911 5912 5913 5913 5913 5913 5913 5913 5913 5914 5914 5915 5916 5916 5916 5916 5916 5916 5916 5915 5914 5912 5911 5910 5909 5908 5907 5905 5904 5903 5902 5901 5900 5898 5897 5896 5895 5894 5893 5891 5889 5887 5886 5885 5884 5882 5881 5879 5878 5876 5874 5872 5870 5869 5867 5865 5862 5860 5857 5855
5891 5892 5893 5894 5894 5895 5896 5897 5898 5899 5899 5899 5900 5900 5900 5901 5901 5902 5902 5903 5904 5905 5906 5907 5907 5908 5909 5910 5910 5911 5910 5910 5911 5911 5911 5912 5913 5914 5914 5915 5915 5915 5915 5915 5914 5913 5911 5910 5909 5908 5907 5905 5904 5902 5901 5900 5898 5897 5895 5894 5893 5892 5891 5889 5888 5886 5884 5883 5882 5882 5880 5878 5876 5875 5873 5871 5870 5868 5865 5863 5860 5858 5855 5853 5850
5888 5889 5890 5891 5892 5893 5894 5895 5896 5896 5897 5897 5897 5898 5898 5899 5899 5900 5900 5901 5902 5903 5903 5904 5904 5905 5906 5906 5907 5907 5907 5907 5908 5908 5909 5909 5910 5911 5912 5913 5913 5913 5913 5913 5913 5911 5910 5909 5908 5907 5906 5904 5902 5900 5899 5898 5896 5895 5893 5892 5891 5889 5888 5887 5885 5884 5882 5881 5880 5878 5877 5875 5874 5872 5870 5868 5867 5865 5862 5860 5857 5854 5851 5848 5844
5885 5887 5888 5889 5890 5891 5892 5893 5893 5894 5894 5895 5895 5895 5896 5897 5897 5898 5898 5898 5899 5900 5900 5901 5901 5902 5902 5903 5903 5904 5904 5904 5905 5905 5906 5907 5908 5909 5910 5910 5911 5911 5912 5911 5911 5910 5909 5908 5907 5905 5904 5902 5900 5898 5897 5896 5895 5893 5891 5890 5889 5887 5885 5884 5883 5882 5880 5879 5877 5876 5874 5872 5870 5869 5867 5865 5863 5861 5858 5856 5853 5850 5846 5842 5839
5883 5884 5886 5887 5888 5889 5890 5891 5891 5891 5892 5892 5893 5893 5894 5895 5895 5895 5896 5896 5897 5897 5897 5898 5898 5898 5898 5899 5899 5900 5901 5901 5902 5902 5903 5904 5905 5906 5907 5907 5908 5909 5909 5909 5909 5908 5907 5906 5905 5903 5901 5900 5898 5896 5894 5893 5892 5891 5889 5888 5887 5885 5883 5882 5881 5880 5878 5877 5875 5873 5871 5869 5867 5866 5864 5862 5859 5857 5854 5851 5848 5845 5842 5838 5833
5880 5882 5883 5884 5886 5887 5888 5888 5889 5889 5890 5890 5891 5891 5892 5892 5893 5893 5894 5894 5894 5894 5894 5895 5895 5895 5895 5895 5896 5897 5897 5898 5899 5899 5900 5901 5902 5903 5904 5904 5905 5906 5906 5906 5906 5905 5904 5903 5902 5901 5899 5898 5896 5894 5892 5891 5890 5889 5888 5886 5885 5883 5882 5880 5879 5878 5876 5874 5873 5871 5869 5866 5864 5863 5861 5858 5856 5854 5851 5847 5844 5840 5836 5833 5828
5878 5879 5881 5882 5883 5884 5885 5885 5886 5887 5887 5888 5889 5889 5889 5890 5891 5891 5892 5892 5892 5892 5892 5892 5892 5892 5892 5893 5893 5893 5894 5896 5896 5897 5897 5898 5899 5900 5900 5901 5901 5902 5903 5903 5903 5902 5901 5900 5899 5898 5897 5895 5894 5893 5891 5890 5888 5887 5886 5885 5884 5882 5880 5879 5877 5875 5873 5872 5870 5868 5866 5863 5861 5860 5858 5855 5853 5850 5847 5844 5840 5836 5832 5828 5823
5875 5876 5878 5879 5880 5881 5881 5882 5883 5884 5885 5886 5887 5887 5887 5888 5889 5889 5890 5890 5890 5890 5890 5890 5890 5890 5890 5890 5890 5891 5892 5893 5894 5894 5894 5895 5896 5896 5897 5897 5898 5898 5899 5900 5899 5899 5898 5897 5896 5895 5894 5893 5892 5891 5890 5888 5887 5886 5884 5883 5882 5880 5879 5876 5874 5872 5870 5869 5867 5864 5862 5860 5858 5856 5854 5852 5849 5846 5843 5839 5835 5831 5828 5824 5820
5872 5873 5875 5876 5877 5878 5879 5880 5881 5882 5883 5884 5884 5885 5885 5885 5886 5887 5887 5888 5888 5888 5888 5888 5888 5887 5887 5887 5887 5888 5889 5890 5891 5891 5891 5891 5892 5893 5893 5893 5894 5894 5895 5896 5896 5896 5895 5895 5893 5892 5891 5891 5890 5888 5887 5886 5885 5883 5882 5880 5879 5878 5876 5874 5872 5869 5867 5865 5863 5861 5859 5857 5855 5853 5851 5848 5845 5841 5838 5834 5830 5826 5823 5820 5816
5869 5871 5872 5873 5874 5876 5877 5878 5879 5880 5881 5882 5882 5882 5882 5883 5884 5884 5885 5885 5885 5886 5886 5886 5886 5885 5885 5885 5885 5885 5886 5887 5887 5888 5888 5888 5888 5889 5889 5889 5889 5890 5891 5892 5892 5893 5893 5892 5890 5889 5888 5887 5886 5885 5885 5884 5883 5881 5879 5878 5877 5875 5874 5871 5869 5866 5864 5862 5860 5857 5855 5853 5851 5849 5847 5844 5840 5837 5833 5829 5825 5822 5818 5815 5812
5867 5868 5869 5870 5872 5873 5874 5875 5876 5877 5878 5879 5879 5879 5880 5880 5881 5882 5882 5882 5882 5883 5883 5883 5883 5883 5882 5882 5882 5882 5883 5884 5884 5885 5885 5884 5884 5885 5885 5885 5885 5885 5886 5888 5889 5889 5889 5889 5887 5885 5884 5883 5883 5882 5882 5881 5880 5878 5877 5875 5874 5872 5871 5868 5866 5863 5860 5858 5856 5854 5852 5850 5847 5845 5842 5839 5835 5832 5828 5824 5821 5817 5814 5811 5808
5864 5865 5866 5867 5869 5870 5871 5872 5873 5874 5875 5875 5876 5876 5877 5878 5878 5879 5879 5879 5879 5879 5880 5880 5880 5880 5880 5880 5879 5879 5879 5880 5881 5881 5881 5881 5880 5880 5880 5880 5881 5881 5882 5883 5885 5886 5886 5885 5884 5882 5880 5880 5879 5879 5878 5877 5876 5875 5874 5873 5871 5869 5867 5865 5862 5859 5857 5854 5852 5850 5848 5846 5843 5841 5837 5834 5831 5827 5824 5820 5816 5813 5810 5807 5804
5861 5862 5863 5864 5865 5867 5868 5869 5870 5870 5871 5872 5872 5873 5873 5874 5875 5876 5875 5875 5875 5876 5876 5876 5877 5877 5877 5876 5876 5876 5876 5876 5877 5878 5878 5877 5876 5875 5875 5876 5877 5877 5878 5879 5881 5882 5882 5881 5880 5879 5877 5876 5875 5875 5875 5874 5873 5871 5869 5868 5867 5865 5863 5861 5858 5856 5853 5851 5849 5847 5844 5842 5839 5836 5833 5830 5827 5823 5820 5816 5813 5809 5806 5803 5800
5858 5859 5860 5862 5863 5864 5865 5866 5866 5867 5867 5868 5868 5869 5870 5871 5871 5872 5872 5872 5872 5871 5872 5873 5873 5873 5873 5873 5872 5872 5872 5872 5873 5874 5874 5873 5871 5870 5870 5871 5873 5873 5873 5874 5876 5877 5877 5877 5876 5875 5874 5873 5872 5871 5870 5869 5868 5866 5863 5862 5862 5861 5859 5856 5854 5852 5850 5847 5845 5843 5840 5837 5834 5832 5829 5826 5823 5819 5816 5812 5809 5806 5803 5800 5796
5856 5857 5858 5859 5860 5861 5861 5862 5863 5864 5864 5864 5865 5866 5867 5867 5867 5868 5868 5868 5868 5868 5868 5868 5869 5869 5868 5868 5868 5868 5868 5868 5869 5869 5869 5868 5866 5866 5866 5866 5868 5869 5869 5870 5871 5873 5873 5873 5872 5872 5870 5869 5868 5868 5866 5865 5864 5862 5859 5858 5858 5857 5855 5852 5850 5848 5846 5843 5841 5838 5836 5833 5830 5827 5825 5822 5819 5815 5812 5809 5806 5803 5799 5796 5793
5853 5855 5856 5856 5857 5857 5858 5858 5859 5860 5861 5861 5862 5862 5863 5863 5863 5864 5864 5864 5864 5864 5863 5863 5864 5864 5864 5864 5864 5864 5863 5863 5864 5864 5863 5862 5861 5861 5861 5861 5862 5864 5864 5865 5866 5867 5868 5868 5867 5867 5866 5864 5864 5864 5862 5861 5860 5859 5857 5855 5854 5852 5850 5848 5846 5844 5841 5839 5837 5834 5831 5828 5826 5823 5820 5817 5814 5811 5808 5805 5802 5799 5796 5792 5790
5850 5851 5852 5853 5853 5853 5854 5854 5855 5857 5857 5858 5859 5859 5859 5859 5859 5859 5859 5860 5860 5860 5859 5859 5859 5859 5859 5859 5859 5859 5858 5859 5860 5859 5858 5857 5857 5856 5856 5856 5857 5858 5860 5860 5861 5862 5863 5862 5862 5862 5861 5859 5859 5859 5858 5856 5854 5854 5853 5851 5849 5847 5846 5844 5842 5840 5837 5835 5832 5830 5827 5824 5822 5819 5816 5813 5810 5807 5805 5802 5798 5795 5792 5789 5786
5846 5846 5847 5847 5848 5849 5850 5851 5852 5853 5854 5854 5854 5854 5854 5854 5854 5855 5855 5855 5855 5855 5855 5855 5855 5855 5855 5854 5854 5854 5854 5854 5856 5856 5854 5853 5852 5851 5851 5851 5851 5853 5855 5855 5855 5856 5857 5857 5856 5856 5855 5854 5853 5853 5852 5851 5849 5848 5847 5846 5844 5842 5841 5839 5838 5835 5833 5831 5828 5826 5823 5820 5817 5815 5812 5809 5806 5804 5801 5798 5795 5791 5788 5785 5783
5841 5841 5841 5842 5843 5845 5846 5847 5848 5848 5848 5849 5849 5849 5849 5849 5850 5850 5850 5851 5851 5850 5851 5851 5851 5851 5851 5850 5849 5849 5849 5850 5851 5851 5850 5849 5847 5847 5846 5846 5847 5847 5848 5849 5849 5850 5851 5851 5851 5850 5850 5849 5848 5847 5846 5845 5844 5842 5841 5841 5840 5838 5836 5835 5833 5832 5829 5827 5824 5822 5819 5816 5813 5811 5808 5805 5802 5800 5797 5794 5791 5787 5785 5782 5779
5836 5837 5838 5838 5839 5841 5841 5842 5843 5843 5843 5843 5843 5844 5844 5844 5845 5845 5845 5845 5845 5845 5846 5846 5846 5846 5846 5845 5845 5845 5845 5845 5846 5846 5846 5845 5843 5842 5842 5843 5842 5840 5841 5843 5844 5845 5846 5845 5845 5845 5844 5843 5843 5842 5841 5839 5838 5837 5836 5836 5835 5833 5832 5830 5829 5827 5825 5823 5820 5818 5815 5812 5809 5806 5804 5801 5799 5796 5794 5790 5787 5784 5781 5778 5776
5832 5833 5834 5834 5835 5836 5837 5837 5837 5837 5837 5838 5838 5839 5839 5839 5839 5839 5839 5839 5839 5839 5840 5840 5840 5840 5840 5840 5840 5840 5840 5839 5839 5840 5840 5839 5839 5838 5838 5838 5837 5834 5835 5837 5838 5839 5839 5839 5839 5839 5838 5837 5837 5836 5834 5834 5833 5832 5831 5831 5830 5828 5827 5826 5824 5823 5821 5818 5816 5813 5810 5807 5805 5802 5800 5797 5795 5793 5790 5786 5783 5780 5778 5775 5772
5827 5828 5829 5829 5830 5831 5831 5831 5831 5831 5832 5832 5833 5833 5833 5833 5833 5833 5833 5834 5833 5833 5833 5833 5833 5834 5834 5834 5834 5834 5834 5833 5833 5833 5833 5833 5833 5832 5832 5832 5830 5827 5828 5830 5831 5831 5832 5831 5832 5833 5831 5830 5830 5829 5828 5828 5828 5826 5826 5826 5825 5823 5821 5820 5819 5818 5816 5814 5812 5809 5806 5803 5801 5798 5796 5793 5791 5789 5786 5782 5779 5777 5774 5771 5769
5822 5823 5823 5824 5824 5825 5826 5826 5826 5827 5827 5827 5827 5827 5828 5827 5828 5828 5828 5827 5827 5827 5827 5827 5826 5826 5826 5826 5827 5827 5826 5826 5827 5827 5827 5826 5825 5824 5824 5823 5821 5820 5821 5822 5822 5824 5824 5824 5824 5824 5824 5823 5824 5823 5822 5821 5820 5820 5821 5821 5819 5818 5816 5814 5814 5813 5811 5810 5807 5804 5802 5799 5796 5794 5792 5789 5787 5785 5781 5778 5776 5773 5770 5768 5765
5817 5818 5818 5819 5819 5819 5820 5821 5821 5821 5821 5821 5822 5822 5822 5821 5822 5822 5821 5821 5821 5821 5821 5821 5820 5820 5820 5820 5820 5819 5819 5819 5821 5821 5820 5819 5818 5817 5815 5813 5811 5811 5813 5814 5814 5816 5816 5815 5814 5815 5815 5816 5817 5816 5815 5813 5813 5814 5814 5814 5813 5812 5810 5809 5808 5808 5807 5805 5803 5800 5797 5795 5792 5790 5788 5786 5783 5781 5777 5774 5772 5770 5767 5763 5761
5812 5813 5814 5814 5814 5814 5814 5815 5815 5815 5816 5816 5816 5816 5816 5816 5815 5815 5815 5816 5816 5815 5815 5814 5814 5814 5814 5814 5813 5811 5811 5812 5814 5814 5814 5814 5813 5811 5808 5804 5802 5802 5803 5804 5806 5807 5807 5804 5804 5806 5807 5808 5809 5808 5806 5805 5806 5807 5807 5807 5807 5805 5804 5803 5803 5803 5802 5800 5798 5796 5793 5791 5788 5786 5784 5782 5779 5777 5773 5771 5768 5766 5763 5759 5756
5805 5806 5807 5807 5808 5808 5809 5809 5809 5809 5810 5810 5810 5810 5810 5809 5809 5808 5809 5809 5809 5809 5808 5808 5807 5808 5808 5807 5805 5803 5803 5805 5807 5808 5807 5806 5805 5803 5799 5797 5796 5796 5794 5793 5795 5797 5796 5794 5794 5797 5799 5800 5802 5800 5797 5797 5800 5800 5800 5800 5800 5798 5798 5798 5798 5798 5797 5795 5793 5791 5789 5786 5784 5782 5780 5778 5775 5772 5770 5767 5765 5762 5759 5755 5752
5799 5800 5800 5801 5801 5802 5803 5803 5803 5803 5803 5804 5803 5803 5803 5803 5802 5802 5802 5802 5802 5802 5801 5801 5801 5801 5800 5798 5797 5795 5796 5798 5800 5800 5799 5797 5796 5794 5791 5790 5792 5791 5787 5784 5786 5788 5788 5786 5786 5788 5790 5792 5793 5791 5788 5790 5793 5794 5794 5794 5793 5792 5792 5792 5792 5792 5792 5790 5788 5787 5785 5782 5780 5778 5776 5774 5771 5768 5766 5763 5761 5758 5755 5752 5749
5793 5793 5794 5795 5795 5796 5796 5797 5797 5797 5797 5797 5797 5797 5796 5796 5796 5795 5796 5795 5795 5794 5793 5793 5793 5792 5790 5790 5790 5789 5790 5791 5791 5789 5787 5787 5787 5785 5781 5780 5783 5783 5781 5780 5781 5782 5782 5781 5781 5782 5783 5785 5785 5783 5782 5783 5785 5787 5788 5787 5786 5786 5786 5786 5787 5787 5786 5785 5783 5782 5780 5778 5776 5775 5772 5770 5767 5765 5762 5760 5757 5755 5752 5749 5746
5786 5787 5787 5788 5789 5789 5789 5790 5790 5790 5790 5790 5789 5789 5789 5788 5788 5787 5787 5787 5787 5786 5785 5785 5785 5783 5781 5781 5782 5782 5782 5782 5782 5781 5779 5778 5777 5774 5771 5770 5772 5774 5774 5775 5776 5776 5776 5777 5778 5778 5778 5779 5778 5778 5777 5776 5777 5779 5780 5780 5779 5780 5780 5781 5782 5782 5781 5780 5779 5777 5776 5774 5772 5770 5768 5766 5763 5761 5759 5756 5754 5752 5749 5746 5743
5779 5780 5780 5781 5781 5782 5782 5782 5782 5782 5782 5782 5782 5781 5781 5780 5780 5779 5779 5778 5778 5778 5777 5776 5775 5774 5773 5772 5772 5771 5772 5773 5774 5775 5773 5769 5767 5766 5764 5762 5764 5766 5768 5768 5769 5769 5770 5771 5772 5772 5772 5771 5771 5770 5770 5769 5769 5771 5773 5773 5773 5774 5774 5776 5777 5776 5775 5774 5774 5772 5771 5769 5768 5766 5764 5761 5759 5757 5755 5753 5751 5749 5746 5744 5740
5772 5773 5773 5774 5774 5774 5774 5775 5775 5775 5774 5774 5773 5773 5772 5772 5771 5771 5771 5770 5769 5769 5768 5766 5765 5764 5764 5762 5761 5761 5762 5763 5764 5765 5765 5762 5760 5759 5756 5755 5757 5759 5761 5762 5762 5763 5763 5764 5765 5765 5765 5764 5763 5762 5762 5761 5762 5763 5765 5766 5766 5767 5769 5770 5771 5770 5770 5769 5768 5767 5766 5765 5763 5761 5759 5757 5755 5753 5751 5749 5747 5746 5743 5741 5738
5766 5766 5767 5767 5768 5768 5768 5767 5767 5767 5767 5766 5765 5765 5764 5763 5762 5762 5761 5761 5760 5759 5758 5757 5756 5754 5753 5751 5749 5749 5750 5751 5753 5755 5756 5755 5754 5753 5749 5747 5748 5750 5752 5754 5755 5756 5756 5756 5756 5757 5757 5756 5756 5755 5754 5755 5755 5756 5757 5758 5759 5761 5763 5765 5765 5765 5765 5764 5763 5763 5761 5760 5759 5757 5755 5753 5751 5749 5747 5746 5744 5742 5740 5738 5735
5759 5759 5760 5760 5760 5760 5760 5759 5759 5759 5758 5758 5757 5757 5756 5755 5754 5752 5752 5751 5751 5750 5749 5747 5745 5742 5740 5738 5736 5735 5736 5737 5740 5743 5745 5744 5744 5744 5740 5738 5740 5743 5745 5746 5747 5748 5748 5748 5749 5749 5749 5749 5749 5749 5749 5750 5750 5749 5749 5750 5752 5755 5758 5759 5760 5760 5760 5759 5759 5758 5757 5756 5755 5753 5750 5749 5747 5745 5743 5742 5741 5739 5737 5735 5733
5753 5752 5752 5752 5752 5752 5751 5750 5750 5750 5750 5750 5750 5749 5748 5747 5745 5744 5742 5741 5741 5740 5739 5736 5733 5729 5726 5723 5722 5722 5722 5724 5727 5730 5732 5732 5733 5733 5730 5730 5732 5736 5737 5738 5739 5740 5741 5741 5742 5742 5743 5743 5743 5744 5744 5744 5743 5742 5742 5743 5747 5750 5752 5754 5754 5754 5754 5754 5754 5753 5753 5752 5750 5748 5746 5745 5743 5741 5740 5739 5737 5736 5734 5732 5730
5746 5745 5745 5744 5744 5743 5742 5742 5742 5742 5742 5742 5742 5741 5740 5739 5737 5736 5734 5733 5731 5730 5727 5723 5719 5715 5711 5708 5707 5707 5708 5710 5712 5716 5719 5721 5722 5722 5722 5723 5725 5728 5729 5730 5731 5733 5734 5734 5734 5735 5735 5736 5736 5737 5736 5736 5735 5735 5736 5738 5742 5745 5747 5748 5749 5749 5750 5750 5749 5749 5748 5747 5746 5744 5742 5740 5739 5737 5736 5735 5734 5732 5730 5729 5727
5738 5738 5737 5737 5736 5735 5734 5734 5734 5735 5734 5734 5734 5734 5733 5731 5730 5728 5726 5725 5723 5720 5716 5713 5708 5702 5696 5691 5689 5689 5691 5693 5695 5698 5702 5708 5711 5711 5713 5717 5719 5720 5722 5723 5723 5725 5726 5726 5726 5727 5728 5729 5729 5730 5730 5729 5728 5729 5731 5734 5737 5740 5742 5743 5744 5744 5745 5745 5744 5744 5744 5743 5741 5740 5738 5736 5735 5734 5733 5732 5730 5729 5727 5726 5724
5730 5729 5729 5729 5728 5727 5726 5727 5727 5727 5727 5727 5727 5727 5726 5725 5723 5721 5718 5717 5714 5710 5707 5704 5700 5693 5685 5678 5672 5671 5674 5676 5677 5679 5686 5695 5701 5704 5706 5710 5712 5713 5715 5716 5716 5717 5718 5718 5719 5720 5721 5722 5723 5724 5724 5724 5723 5725 5727 5730 5733 5735 5737 5738 5739 5739 5740 5740 5740 5739 5739 5738 5737 5735 5734 5733 5731 5730 5729 5728 5727 5725 5724 5723 5721
5721 5721 5721 5721 5721 5720 5720 5720 5720 5720 5720 5720 5720 5720 5719 5718 5716 5714 5711 5709 5706 5701 5698 5697 5694 5687 5680 5674 5669 5669 5669 5669 5671 5676 5682 5688 5693 5697 5699 5702 5704 5707 5709 5710 5710 5711 5712 5713 5714 5715 5716 5717 5718 5718 5719 5719 5719 5721 5723 5726 5729 5731 5732 5733 5734 5734 5735 5735 5735 5735 5735 5734 5732 5731 5730 5729 5728 5727 5726 5725 5723 5722 5721 5719 5718
5713 5713 5713 5713 5713 5713 5713 5713 5713 5714 5714 5714 5713 5714 5713 5711 5709 5707 5704 5702 5699 5695 5693 5692 5690 5685 5680 5676 5673 5673 5673 5673 5675 5680 5681 5682 5686 5691 5694 5696 5698 5701 5703 5704 5705 5706 5707 5709 5710 5711 5712 5713 5714 5714 5715 5715 5716 5718 5720 5722 5724 5726 5727 5728 5729 5729 5730 5730 5730 5730 5730 5729 5728 5726 5725 5725 5724 5723 5722 5721 5720 5718 5717 5716 5715
5706 5706 5706 5706 5706 5706 5706 5706 5706 5707 5707 5707 5707 5707 5707 5705 5703 5701 5699 5697 5694 5692 5690 5690 5688 5684 5680 5677 5674 5673 5673 5674 5676 5679 5679 5679 5683 5687 5690 5692 5694 5696 5698 5700 5701 5702 5704 5705 5706 5707 5708 5709 5710 5710 5710 5711 5713 5715 5717 5718 5720 5721 5722 5723 5724 5724 5725 5725 5725 5725 5725 5724 5723 5722 5721 5721 5720 5719 5718 5717 5716 5715 5714 5713 5712
5700 5700 5700 5699 5699 5699 5699 5699 5699 5699 5700 5701 5701 5701 5701 5699 5697 5695 5694 5693 5691 5690 5689 5689 5687 5684 5681 5678 5675 5674 5673 5673 5675 5677 5679 5680 5681 5684 5686 5688 5690 5693 5695 5697 5698 5699 5701 5702 5703 5703 5704 5705 5705 5706 5707 5708 5709 5711 5713 5714 5715 5716 5717 5718 5719 5720 5720 5720 5720 5720 5720 5720 5719 5718 5717 5717 5716 5715 5714 5714 5712 5711 5710 5709 5709
5693 5693 5693 5693 5692 5692 5692 5692 5692 5692 5693 5694 5694 5694 5694 5693 5692 5690 5690 5689 5688 5687 5686 5686 5686 5685 5682 5680 5678 5677 5675 5674 5675 5676 5678 5679 5680 5682 5683 5685 5687 5689 5691 5693 5694 5695 5697 5698 5699 5700 5700 5701 5701 5702 5703 5704 5705 5707 5708 5710 5711 5712 5712 5713 5714 5715 5715 5715 5716 5716 5716 5715 5714 5714 5713 5712 5711 5711 5710 5709 5709 5708 5707 5706 5705
5686 5686 5687 5687 5686 5686 5686 5685 5685 5686 5686 5687 5688 5688 5688 5687 5686 5685 5685 5685 5684 5683 5682 5681 5681 5681 5680 5680 5679 5678 5677 5676 5675 5675 5676 5677 5678 5680 5681 5683 5684 5686 5687 5689 5690 5691 5692 5693 5694 5695 5696 5696 5697 5698 5699 5700 5701 5703 5704 5705 5706 5707 5708 5708 5709 5710 5710 5711 5711 5711 5711 5710 5710 5709 5709 5708 5707 5706 5706 5705 5705 5704 5703 5702 5702
5680 5680 5680 5680 5680 5680 5680 5679 5679 5680 5680 5681 5682 5682 5682 5681 5681 5681 5680 5680 5680 5679 5678 5677 5676 5675 5674 5674 5674 5673 5673 5673 5673 5673 5673 5674 5676 5677 5679 5680 5681 5682 5683 5684 5685 5686 5687 5688 5689 5690 5691 5692 5693 5694 5695 5696 5697 5698 5700 5701 5701 5702 5703 5703 5704 5705 5705 5706 5706 5706 5706 5705 5705 5705 5704 5703 5702 5702 5701 5701 5700 5700 5699 5699 5698
5673 5673 5674 5674 5674 5674 5674 5674 5674 5675 5675 5676 5676 5677 5676 5676 5676 5676 5676 5676 5676 5676 5675 5673 5671 5670 5669 5668 5667 5667 5668 5668 5669 5669 5670 5671 5673 5675 5676 5676 5676 5678 5679 5680 5681 5682 5683 5684 5685 5685 5687 5688 5689 5689 5690 5692 5693 5694 5695 5696 5697 5697 5698 5698 5699 5700 5700 5701 5701 5701 5701 5700 5700 5700 5699 5698 5698 5697 5697 5697 5696 5696 5695 5695 5694
5667 5667 5667 5667 5667 5667 5667 5668 5668 5669 5670 5670 5671 5671 5671 5670 5670 5671 5671 5671 5671 5671 5671 5670 5668 5667 5667 5666 5665 5665 5665 5666 5666 5667 5667 5668 5671 5674 5673 5672 5672 5674 5676 5676 5677 5678 5679 5680 5681 5682 5682 5683 5684 5685 5686 5687 5688 5689 5690 5691 5691 5692 5692 5693 5694 5694 5695 5695 5696 5696 5695 5695 5695 5694 5694 5693 5693 5692 5692 5692 5692 5691 5691 5690 5690
5660 5661 5661 5661 5661 5661 5662 5662 5663 5663 5664 5665 5665 5666 5666 5665 5665 5666 5666 5666 5666 5666 5666 5665 5664 5663 5663 5663 5663 5663 5663 5663 5664 5665 5665 5666 5668 5670 5670 5669 5669 5671 5671 5672 5673 5674 5675 5676 5677 5677 5678 5679 5680 5681 5682 5683 5683 5684 5685 5686 5686 5687 5687 5688 5688 5689 5689 5690 5690 5690 5690 5690 5690 5689 5689 5688 5688 5687 5687 5687 5687 5687 5686 5686 5686
5654 5654 5655 5655 5656 5656 5656 5657 5657 5657 5658 5658 5659 5660 5660 5660 5660 5660 5661 5661 5662 5662 5661 5661 5661 5659 5658 5658 5659 5660 5660 5660 5661 5661 5662 5663 5664 5665 5665 5666 5666 5667 5667 5668 5669 5670 5671 5671 5672 5673 5674 5675 5676 5677 5678 5678 5679 5679 5680 5680 5681 5681 5682 5682 5683 5683 5683 5684 5684 5684 5685 5684 5684 5684 5683 5683 5683 5682 5682 5682 5682 5682 5682 5681 5681
5649 5649 5649 5650 5650 5650 5651 5651 5652 5652 5653 5653 5653 5654 5654 5655 5655 5655 5655 5656 5657 5657 5656 5656 5657 5656 5655 5655 5655 5655 5655 5656 5657 5657 5658 5659 5659 5660 5661 5661 5662 5663 5663 5664 5665 5665 5666 5667 5668 5669 5670 5671 5671 5672 5673 5673 5674 5674 5675 5675 5675 5676 5676 5676 5677 5677 5678 5678 5678 5678 5679 5679 5679 5678 5678 5678 5677 5677 5677 5677 5677 5677 5677 5676 5676